User: anonymous   Login
Location: Newark
(54.8972°N, 99.8189°W)
Time: 16:30:29
(UTC+00:00)
Language:

Courier 1B Rocket - Orbit

View from above orbital plane
View from above orbital plane
View from above satellite
View from above satellite

Ground track
Ground track

The orbit data is extracted from the following two-line orbital elements,

1    59U 60013B   19316.14229953  .00000095  00000-0  51570-5 0  9996
2    59  28.2486 259.6167 0189222 253.7971 104.1675 13.52971896917529
Epoch (UTC): 12 November 2019 03:24:54
Eccentricity: 0.0189222
inclination: 28.2486°
perigee height: 920 km
apogee height: 1202 km
right ascension of ascending node: 259.6167°
argument of perigee: 253.7971°
revolutions per day: 13.52971896
mean anomaly at epoch: 104.1675°
orbit number at epoch: 91752

The dashed part of the orbit path shows where the satellite is in the earth's shadow,  

DLR